TimeEDT,TemperatureF,Dew PointF,Humidity,Sea Level PressureIn,VisibilityMPH,Wind Direction,Wind SpeedMPH,Gust SpeedMPH,PrecipitationIn,Events,Conditions,WindDirDegrees,DateUTC
12:53 AM,72.0,70.0,93,30.04,9.0,SSE,10.4,-,0.00,,Mostly Cloudy,150,2013-05-21 04:53:00
1:53 AM,73.0,69.1,87,29.99,10.0,SE,3.5,-,0.00,,Mostly Cloudy,140,2013-05-21 05:53:00
2:53 AM,72.0,70.0,93,29.97,10.0,ESE,5.8,-,N/A,,Scattered Clouds,110,2013-05-21 06:53:00
3:53 AM,75.0,71.1,87,29.95,10.0,ESE,11.5,-,N/A,,Partly Cloudy,110,2013-05-21 07:53:00
4:53 AM,72.0,68.0,87,29.97,10.0,ESE,8.1,-,N/A,,Partly Cloudy,120,2013-05-21 08:53:00
5:53 AM,73.9,72.0,93,29.96,10.0,ESE,10.4,-,N/A,,Partly Cloudy,120,2013-05-21 09:53:00
6:53 AM,73.9,71.1,91,29.98,10.0,SE,6.9,-,N/A,,Partly Cloudy,130,2013-05-21 10:53:00
7:53 AM,75.9,72.0,87,30.00,10.0,South,8.1,-,N/A,,Mostly Cloudy,180,2013-05-21 11:53:00
8:25 AM,73.4,71.6,94,30.01,10.0,SSE,3.5,-,0.14,Thunderstorm,Thunderstorm,150,2013-05-21 12:25:00
8:53 AM,73.9,71.1,91,30.02,10.0,Calm,Calm,-,0.14,,Mostly Cloudy,0,2013-05-21 12:53:00
9:53 AM,77.0,71.1,82,30.01,10.0,Calm,Calm,-,N/A,,Scattered Clouds,0,2013-05-21 13:53:00
10:53 AM,79.0,71.1,77,30.02,10.0,Calm,Calm,-,N/A,,Mostly Cloudy,0,2013-05-21 14:53:00
11:53 AM,81.0,73.9,79,30.03,10.0,East,16.1,-,N/A,,Mostly Cloudy,80,2013-05-21 15:53:00
12:53 PM,77.0,71.1,82,30.02,10.0,East,11.5,-,N/A,,Mostly Cloudy,100,2013-05-21 16:53:00
1:06 PM,77.0,71.6,83,30.02,10.0,East,11.5,-,0.00,Rain,Light Rain,80,2013-05-21 17:06:00
1:35 PM,75.2,71.6,89,30.00,10.0,East,8.1,-,0.00,Rain-Thunderstorm,Light Thunderstorms and Rain,90,2013-05-21 17:35:00
1:53 PM,80.1,73.0,79,29.98,10.0,East,5.8,-,0.00,Thunderstorm,Thunderstorm,100,2013-05-21 17:53:00
2:30 PM,80.6,71.6,74,29.97,10.0,East,10.4,-,N/A,,Scattered Clouds,90,2013-05-21 18:30:00
2:53 PM,78.1,72.0,81,29.97,10.0,ESE,11.5,21.9,N/A,,Scattered Clouds,110,2013-05-21 18:53:00
3:53 PM,80.1,73.0,79,29.94,10.0,SE,13.8,-,N/A,,Scattered Clouds,130,2013-05-21 19:53:00
4:04 PM,78.8,73.4,83,29.94,10.0,ESE,15.0,-,N/A,,Mostly Cloudy,110,2013-05-21 20:04:00
4:19 PM,78.8,73.4,83,29.94,10.0,East,15.0,-,N/A,,Scattered Clouds,100,2013-05-21 20:19:00
4:53 PM,80.1,72.0,76,29.95,10.0,East,15.0,-,N/A,,Scattered Clouds,90,2013-05-21 20:53:00
5:53 PM,79.0,71.1,77,29.93,10.0,ESE,15.0,-,N/A,,Mostly Cloudy,120,2013-05-21 21:53:00
6:53 PM,78.1,72.0,81,29.96,10.0,ESE,10.4,-,N/A,,Mostly Cloudy,120,2013-05-21 22:53:00
7:53 PM,78.1,71.1,79,29.97,10.0,ESE,9.2,-,N/A,,Mostly Cloudy,120,2013-05-21 23:53:00
8:38 PM,77.0,71.6,83,29.97,10.0,ESE,9.2,-,N/A,,Mostly Cloudy,110,2013-05-22 00:38:00
8:47 PM,77.0,71.6,83,29.97,10.0,ESE,8.1,-,N/A,,Mostly Cloudy,120,2013-05-22 00:47:00
8:53 PM,77.0,71.1,82,29.97,10.0,SE,9.2,-,N/A,,Mostly Cloudy,130,2013-05-22 00:53:00
9:53 PM,77.0,71.1,82,29.96,10.0,ESE,8.1,-,N/A,,Partly Cloudy,120,2013-05-22 01:53:00
10:53 PM,75.9,70.0,82,29.96,10.0,SE,8.1,-,N/A,,Partly Cloudy,130,2013-05-22 02:53:00
11:53 PM,77.0,72.0,84,29.96,10.0,ESE,6.9,-,N/A,,Partly Cloudy,110,2013-05-22 03:53:00